AirNav   Pilot Hours Calculator
 
 1146 users online  

64CL Goodyear Blimp Base Airport
Carson, California, USA

GOING TO CARSON?


FAA INFORMATION EFFECTIVE 22 APRIL 2021

Location

FAA Identifier: 64CL
Lat/Long: 33-51-18.0000N 118-16-34.2000W
33-51.300000N 118-16.570000W
33.8550000,-118.2761667
(estimated)
Elevation: 21 ft. / 6 m (estimated)
Variation: 13E (2005)
From city: 1 mile SW of CARSON, CA
Time zone: UTC -7 (UTC -8 during Standard Time)
Zip code: 90746

Airport Operations

Airport use: Private use. Permission required prior to landing
Activation date: 01/1968
Control tower: no
ARTCC: LOS ANGELES CENTER
FSS: HAWTHORNE FLIGHT SERVICE STATION
NOTAMs facility: FDC (NOTAM-D service not available)
Attendance: IREG
Wind indicator: yes
Segmented circle: no

Airport Communications

WX AWOS-3PT at CPM (2.6 nm NE): 127.150 (310-631-4958)
WX ASOS at HHR (5 nm NW): PHONE 310-973-8930
WX ASOS at LGB (7 nm E): PHONE 562-424-0572
WX ASOS at LAX (8 nm NW): PHONE 310-568-1486
WX ASOS at SMO (13 nm NW): PHONE 310-392-6453
WX ASOS at FUL (15 nm E): PHONE 714-870-1372
WX AWOS-3PT at EMT (18 nm NE): 118.75 ((626) 444-1107)

Nearby radio navigation aids

VOR radial/distance  VOR name  Freq  Var
LAXr106/9.1LOS ANGELES VORTAC113.6015E
SLIr276/11.8SEAL BEACH VORTAC115.7015E
SMOr121/12.9SANTA MONICA VOR/DME110.8015E
VNYr139/24.6VAN NUYS VOR/DME113.1015E
POMr226/27.8POMONA VORTAC110.4015E
ELBr278/29.2EL TORO VOR/DME117.2014E
SXCr359/29.7SANTA CATALINA VORTAC111.4015E
PDZr249/37.4PARADISE VORTAC112.2015E

Airport Services

Fuel available: 100
Airframe service: MINOR
Powerplant service: MINOR

Runway Information

Helipad H1

Dimensions: 1200 x 900 ft. / 366 x 274 m
Surface: turf
COMPOSITE HARD SURFACE
Latitude: 33-51.300000N
Longitude: 118-16.570000W
Elevation: 21.0 ft.
Traffic pattern: leftleft

Airport Ownership and Management from official FAA records

Ownership: Privately-owned
Owner: GOODYEAR TR & RBR CO
200 INNOVATION WAY
AKRON, OH 44316-0001
Phone (330) 796-2121
Manager: MICHAEL DOUGHERTY
841 WINGFOOT LAKE RD
MOGADORE, OH 44260
Phone (330) 796-9090
OR CELL: 330-322-2513

Airport Operational Statistics

Aircraft based on the field: 1
Multi engine airplanes: 1
  • BLIMP
    

Additional Remarks

PLINES SW BOUNDARIES.
FOR CD CTC LOS ANGELES ARTCC AT 661-575-2079.

Instrument Procedures

There are no published instrument procedures at 64CL.

Some nearby airports with instrument procedures:

KTOA - Zamperini Field Airport (4 nm SW)
KHHR - Jack Northrop Field/Hawthorne Municipal Airport (5 nm NW)
KLGB - Long Beach Airport (Daugherty Field) (7 nm E)
KLAX - Los Angeles International Airport (8 nm NW)
KSLI - Los Alamitos Army Airfield (12 nm E)
KSMO - Santa Monica Municipal Airport (13 nm NW)
KFUL - Fullerton Municipal Airport (15 nm E)
KEMT - San Gabriel Valley Airport (18 nm NE)
 
Loc | Ops | Rwys | IFR | FBO | Links
Com | Nav | Svcs | Stats | Notes
Area around 64CL (Goodyear Blimp Base Airport)
 
Road maps at: MapQuest Bing Google
 
Aerial photo
WARNING: Photo may not be current or correct
Aerial photo of 64CL (Goodyear Blimp Base Airport)
Taken in September 2006

Do you have a better or more recent aerial photo of Goodyear Blimp Base Airport that you would like to share? If so, please send us your photo.

 
Sectional chart

 
Airport distance calculator
Flying to Goodyear Blimp Base Airport? Find the distance to fly.

From to 64CL

Sunrise and sunset
Times for 16-May-2021
 Local
(UTC-7)
 Zulu
(UTC)
Morning civil twilight05:2412:24
Sunrise05:5212:52
Sunset19:4702:47
Evening civil twilight20:1403:14

Current date and time
Zulu (UTC)  16-May-2021 23:14:37
Local (UTC-7)  16-May-2021 16:14:37
 
METAR
KHHR 
5nm NW 
162302Z 23009KT 10SM BKN029 OVC036 17/11 A3000 RMK AO2 T01670106
KTOA 
5nm SW 
162247Z 22008KT 10SM SCT017 BKN030 17/12 A3000
KLGB 
7nm E 
162253Z 18008KT 10SM SCT028 OVC039 18/10 A2999 RMK AO2 SLP156 T01830100
KLAX 
7nm NW 
162253Z 24009KT 10SM FEW015 BKN027 17/12 A3000 RMK AO2 SLP157 T01670117
KCQT 
12nm N 
162300Z AUTO VRB03KT 10SM SCT024 BKN030 OVC035 18/11 A2998 RMK AO2 T01780111
KSMO 
13nm NW 
162251Z 23008KT 10SM SCT017 BKN045 17/11 A2999 RMK AO2 SLP156 T01670106
KSLI 
13nm SE 
162258Z AUTO 22009KT 10SM FEW026 BKN048 19/12 A3000 RMK AO2 SLP162 T01920117
KFUL 
15nm E 
162253Z 22008KT 10SM BKN030 BKN045 19/12 A2998 RMK AO2 SLP152 T01890122
KEMT 
18nm NE 
162138Z 36006KT 10SM -RA BKN026 OVC033 17/12 A3000
TAF
KLGB 
7nm E 
162051Z 1621/1718 20008KT P6SM SCT029 OVC045 FM162200 21010KT P6SM SCT025 BKN040 FM170200 26007KT P6SM OVC025 FM170400 VRB05KT P6SM OVC015 FM171730 21006KT P6SM OVC025
KLAX 
7nm NW 
162217Z 1622/1724 27011KT P6SM SCT021 OVC028 FM170300 26008KT P6SM OVC025 FM170500 VRB03KT P6SM OVC015 FM171800 25007KT P6SM OVC025 FM172100 26012KT P6SM BKN035
KSMO 
13nm NW 
162051Z 1621/1718 22007KT P6SM BKN018 OVC035 FM162200 23012KT P6SM SCT025 BKN035 FM170300 23007KT P6SM OVC025 FM170500 VRB05KT P6SM OVC015 FM171730 23008KT P6SM OVC025
KSLI 
13nm SE 
162100Z 1621/1803 18009KT 9999 SCT030 OVC055 QNH3000INS BECMG 1623/1624 23010KT 9999 SCT020 BKN030 QNH2998INS BECMG 1709/1710 VRB06KT 4000 BR BKN020 OVC025 QNH3000INS BECMG 1713/1714 VRB06KT 6000 BR OVC015 QNH3000INS BECMG 1716/1717 VRB06KT 9999 NSW BKN025 OVC040 QNH3004INS BECMG 1721/1722 22009KT 9999 BKN030 OVC050 QNH3001INS TX19/1720Z TN13/1712Z
NOTAMs
Click for the latest NOTAMs
NOTAMs are issued by the DoD/FAA and will open in a separate window not controlled by AirNav.

 

 
 

Would you like to see your business listed on this page?

 If your business provides an interesting product or service to pilots, flight crews, aircraft, or users of the Goodyear Blimp Base Airport, you should consider listing it here.  To start the listing process, click on the button below
 
Add a business
 

Other Pages about Goodyear Blimp Base Airport

Update a link
 
Copyright © AirNav, LLC. All rights reserved. Privacy Policy  Contact